Millington, TN

10:00 PM CST on February 12, 2016 (GMT -0600)
Millington Municipal

Weather History for KNQA - August, 2014

Change the Weather History Date:

Monday, August 18, 2014

  Actual Average Record
Temperature  
Mean Temperature 80 °F -  
Max Temperature 86 °F 89 °F 102 °F (1999)
Min Temperature 73 °F 69 °F 64 °F (2008)
Cooling Degree Days 14    
Growing Degree Days 30 (Base 50)    
Moisture  
Dew Point 74 °F    
Average Humidity 87    
Maximum Humidity 100    
Minimum Humidity 74    
Precipitation  
Precipitation 0.00 in - - ()
Sea Level Pressure  
Sea Level Pressure 29.88 in    
Wind  
Wind Speed 4 mph (SSW)    
Max Wind Speed 14 mph    
Max Gust Speed -    
Visibility 10 miles    
Events      
Averages and records for this station are not official NWS values.
T = Trace of Precipitation, MM = Missing Value Source: NWS Daily Summary

Daily Weather History Graph

Daily Weather History Graph

Search for Another Location

Airport or City:

Trip Planner

Search our weather history database for the weather conditions in past years. The results will help you decide how hot, cold, wet, or windy it might be!

Date:

Astronomy

Aug. 18, 2014 Rise Set
Actual Time 6:21 AM CDT 7:44 PM CDT
Civil Twilight 5:54 AM CDT 8:11 PM CDT
Nautical Twilight 5:22 AM CDT 8:43 PM CDT
Astronomical Twilight 4:48 AM CDT 9:16 PM CDT
Moon 12:31 AM CDT (8/18) 2:44 PM CDT (8/18)
Length of Visible Light 14h 16m
Length of Day
13h 23m
Last Quarter, 38% of the Moon is Illuminated
Aug 18
Last Quarter
Aug 25
New
Sep 2
First Quarter
Sep 8
Full
Sep 15
Last Quarter

Hourly Weather History & Observations

Time (CDT) Temp. Heat Index Dew Point Humidity Pressure Visibility Wind Dir Wind Speed Gust Speed Precip Events Conditions
2:15 AM 73.4 °F - 73.4 °F 100% 29.89 in 10.0 mi Calm Calm - N/A   Mostly Cloudy
2:35 AM 73.4 °F - 73.4 °F 100% 29.90 in 10.0 mi Calm Calm - N/A   Mostly Cloudy
2:55 AM 73.4 °F - 73.4 °F 100% 29.90 in 10.0 mi SE 4.6 mph - N/A   Scattered Clouds
3:15 AM 73.4 °F - 73.4 °F 100% 29.89 in 10.0 mi Calm Calm - N/A   Mostly Cloudy
3:35 AM 73.4 °F - 73.4 °F 100% 29.90 in 10.0 mi Calm Calm - N/A   Scattered Clouds
3:55 AM 73.4 °F - 73.4 °F 100% 29.90 in 10.0 mi SSE 3.5 mph - N/A   Clear
4:15 AM 73.4 °F - 73.4 °F 100% 29.88 in 10.0 mi SSE 4.6 mph - N/A   Clear
4:35 AM 75.2 °F - 73.4 °F 94% 29.89 in 10.0 mi Calm Calm - N/A   Partly Cloudy
4:55 AM 73.4 °F - 73.4 °F 100% 29.89 in 10.0 mi Calm Calm - N/A   Mostly Cloudy
8:50 AM 82.4 °F 90.9 °F 77.0 °F 84% 29.88 in 10.0 mi SW 6.9 mph - N/A   Scattered Clouds
9:50 AM 84.2 °F 92.3 °F 75.2 °F 74% 29.90 in 10.0 mi SW 6.9 mph - N/A   Mostly Cloudy
10:50 AM 82.4 °F 89.5 °F 75.2 °F 79% 29.92 in 10.0 mi SSW 11.5 mph - N/A   Overcast
11:50 AM 80.6 °F 85.4 °F 73.4 °F 79% 29.93 in 10.0 mi SW 13.8 mph - N/A   Overcast
12:50 PM 80.6 °F 86.2 °F 75.2 °F 84% 29.89 in 10.0 mi WSW 13.8 mph - N/A   Overcast
1:50 PM 86.0 °F 99.3 °F 78.8 °F 79% 29.87 in 10.0 mi West 8.1 mph - N/A   Mostly Cloudy
2:50 PM 82.4 °F 89.5 °F 75.2 °F 79% 29.87 in 10.0 mi West 8.1 mph - N/A   Overcast
3:50 PM 82.4 °F 88.2 °F 73.4 °F 74% 29.86 in 10.0 mi SW 9.2 mph - N/A   Overcast
4:50 PM 82.4 °F 89.5 °F 75.2 °F 79% 29.85 in 10.0 mi SSW 9.2 mph - N/A   Mostly Cloudy
5:50 PM 84.2 °F 92.3 °F 75.2 °F 74% 29.85 in 10.0 mi SW 9.2 mph - N/A   Scattered Clouds
6:50 PM 82.4 °F 89.5 °F 75.2 °F 79% 29.84 in 10.0 mi Variable 5.8 mph - N/A   Scattered Clouds
7:50 PM 80.6 °F 85.4 °F 73.4 °F 79% 29.85 in 10.0 mi Calm Calm - N/A   Scattered Clouds
8:50 PM 78.8 °F - 73.4 °F 83% 29.85 in 10.0 mi SE 3.5 mph - N/A   Scattered Clouds
9:55 PM 78.8 °F - 73.4 °F 83% 29.86 in 10.0 mi Calm Calm - N/A   Scattered Clouds